Tracking 25707 objects as of 29-Jun-2022
HD Live streaming from Space Station
objects crossing your sky now

STARLINK-3857

Track STARLINK-3857 now!
10-day predictions
STARLINK-3857 is classified as:


NORAD ID: 52494
Int'l Code: 2022-049AV
Perigee: 355.8 km
Apogee: 357.8 km
Inclination: 53.2 °
Period: 91.5 minutes
Semi major axis: 6727 km
RCS: Unknown
Launch date: May 6, 2022
Source: United States (US)
Launch site: AIR FORCE EASTERN TEST RANGE (AFETR)
aabbcc
Your satellite tracking list
Your tracking list is empty




NASA's NSSDC Master Catalog

Two Line Element Set (TLE):
1 52494U 22049AV  22180.58334491  .00011092  00000-0  83230-4 0  9994
2 52494  53.2160 358.1568 0001508  38.3518 300.4353 15.73231961  8690
Source of the keplerian elements: AFSPC